60P/Tsuchinshan 2 (2005)

Japanese version
Home page
Total 6,336 html files since Dec. 4, 1995
Updated on April 23, 2006

---------------------------------------------------------------------

* Profile

* Pictures

* Orbital Elements

Epoch 2005 Dec. 16.0 TT = JDT 2453720.5
T 2005 Dec. 24.0554 TT                                  MPCN
q   1.766389             (2000.0)            P               Q
n   0.1452765      Peri.  203.3490      -0.6596894      -0.7432683
a   3.583762       Node   288.1247      +0.7066531      -0.5631018
e   0.507113       Incl.    6.7184      +0.2558345      -0.3612045
P   6.78
From 116 observations 1971-1999, mean residual 0".8.  Nongravitational
     parameters A1 = +0.41, A2 = -0.0023.

* Finding Charts

* Magnitudes Graph

        m1 = 8.0 + 5 log d + 35 log r(t - 22)

---------------------------------------------------------------------

The orbital elements are published at the MPC Ephemerides and Orbital Elements.
The charts are made with StellaNavigator Ver.2.0 for Windows (AstroArts / ASCII).
The magnitudes graphs are made with Comet for Windows.

---------------------------------------------------------------------

Copyright(C) 1995-2008 Seiichi Yoshida (comet@aerith.net). All rights reserved.